EW5624 Weather Reports


Display with metric or nautical units.
time (UTC)temp
F
wind
direction
speed
MPH
gust
MPH
rain 1hr
in
rain 24hr
in
rain mn
in
humidity
%
barometer
mb
20260503013003 57 237 2.0 5.0 0.00 0.00 0.00 52 1010.1
20260503011655 58 237 1.0 3.0 0.00 0.00 0.00 46 1010.1
20260503010044 59 237 3.0 8.0 0.00 0.00 0.00 43 1010.0
20260503004616 60 250 4.0 8.0 0.00 0.00 0.00 42 1010.1
20260503003120 60 229 6.0 14.0 0.00 0.00 0.00 42 1010.3
20260503001502 60 242 8.0 14.0 0.00 0.00 0.00 41 1010.5
20260503000113 60 237 6.0 9.0 0.00 0.00 0.00 40 1010.5
20260502234514 60 235 3.0 7.0 0.00 0.00 0.00 42 1010.7
20260502233051 60 235 3.0 8.0 0.00 0.00 0.00 39 1010.9
20260502231539 60 222 3.0 8.0 0.00 0.00 0.00 38 1011.0
20260502230101 60 240 3.0 8.0 0.00 0.00 0.00 38 1011.1
20260502224553 60 231 7.0 13.0 0.00 0.00 0.00 37 1011.3
20260502223011 61 252 7.0 12.0 0.00 0.00 0.00 37 1011.5
20260502221501 60 225 8.0 15.0 0.00 0.00 0.00 36 1011.8
20260502220054 61 254 8.0 14.0 0.00 0.00 0.00 36 1011.9
20260502214605 61 254 9.0 17.0 0.00 0.00 0.00 35 1012.2
20260502213035 61 219 9.0 19.0 0.00 0.00 0.00 37 1012.3
20260502211530 61 231 12.0 16.0 0.00 0.00 0.00 35 1012.6
20260502210026 60 242 5.0 16.0 0.00 0.00 0.00 36 1012.9
20260502204608 60 250 9.0 16.0 0.00 0.00 0.00 36 1013.1
20260502203127 59 272 9.0 16.0 0.00 0.00 0.00 36 1013.1
20260502201621 60 257 10.0 16.0 0.00 0.00 0.00 36 1013.6
20260502200146 60 200 4.0 13.0 0.00 0.00 0.00 39 1013.7
20260502194600 60 245 12.0 19.0 0.00 0.00 0.00 38 1014.1
20260502193021 58 234 8.0 14.0 0.00 0.00 0.00 39 1014.4
20260502191534 59 261 9.0 14.0 0.00 0.00 0.00 41 1014.5
20260502190033 58 255 10.0 18.0 0.00 0.00 0.00 36 1014.8
20260502184634 57 267 9.0 21.0 0.00 0.00 0.00 36 1015.0
20260502183037 57 253 7.0 15.0 0.00 0.00 0.00 35 1015.2
20260502181529 57 209 10.0 15.0 0.00 0.00 0.00 38 1015.5
20260502163032 55 259 8.0 15.0 0.00 0.00 0.00 38 1016.9
20260502161525 54 250 10.0 17.0 0.00 0.00 0.00 42 1017.0
20260502151539 51 259 7.0 14.0 0.00 0.00 0.00 44 1017.5
20260502140108 46 263 5.0 9.0 0.00 0.00 0.00 61 1017.8
20260502123056 32 317 0.0 0.0 0.00 0.00 0.00 94 1017.9
20260502121512 31 317 0.0 2.0 0.00 0.00 0.00 94 1017.8
20260502120108 29 317 0.0 0.0 0.00 0.00 0.00 94 1017.8
20260502114558 28 317 0.0 2.0 0.00 0.00 0.00 93 1017.8
20260502113028 28 317 1.0 3.0 0.00 0.00 0.00 93 1017.7
20260502111615 28 318 0.0 0.0 0.00 0.00 0.00 93 1017.7
20260502104502 28 318 0.0 0.0 0.00 0.00 0.00 92 1017.7
20260502103053 29 318 0.0 0.0 0.00 0.00 0.00 92 1017.7
20260502101602 29 318 0.0 0.0 0.00 0.00 0.00 92 1017.6
20260502090148 30 318 0.0 0.0 0.00 0.00 0.00 91 1017.8
20260502070038 33 317 0.0 0.0 0.00 0.00 0.00 85 1017.8
20260502064541 34 317 0.0 0.0 0.00 0.00 0.00 84 1017.9
20260502063022 35 317 0.0 0.0 0.00 0.00 0.00 82 1018.1
20260502061530 35 317 0.0 0.0 0.00 0.00 0.00 82 1018.2
20260502060104 36 317 0.0 0.0 0.00 0.00 0.00 82 1018.2
20260502054631 36 317 0.0 0.0 0.00 0.00 0.00 82 1018.0
20260502053035 37 317 0.0 0.0 0.00 0.00 0.00 81 1017.9
20260502051608 37 317 0.0 0.0 0.00 0.00 0.00 81 1018.0
20260502050027 37 317 0.0 0.0 0.00 0.00 0.00 80 1018.0
20260502044515 37 317 0.0 0.0 0.00 0.00 0.00 79 1017.9
20260502043010 37 317 0.0 0.0 0.00 0.00 0.00 78 1017.9
20260502041606 37 317 0.0 0.0 0.00 0.00 0.00 75 1017.9
20260502040048 37 317 0.0 0.0 0.00 0.00 0.00 77 1018.0
20260502034514 37 317 0.0 0.0 0.00 0.00 0.00 74 1018.0
20260502033029 36 317 0.0 0.0 0.00 0.00 0.00 73 1018.1
20260502031526 36 317 0.0 0.0 0.00 0.00 0.00 75 1018.1
20260502030010 36 317 0.0 0.0 0.00 0.00 0.00 74 1018.1
20260502024604 37 317 0.0 0.0 0.00 0.00 0.00 70 1017.9
20260502023040 38 317 0.0 0.0 0.00 0.00 0.00 73 1017.9
20260502021548 38 317 0.0 0.0 0.00 0.00 0.00 71 1017.9
20260502020057 40 317 0.0 0.0 0.00 0.00 0.00 64 1017.9
20260502014558 41 317 0.0 0.0 0.00 0.00 0.00 57 1017.7